• Join FlightAware (Why Join?)
  • Login
  • US Flag 
07:23PM EST


 

Airport Tracker/Info


-or-


 

Live Flight TrackerFlight Track Log ✈ UAL252 ✈ 25-Jul-2013 ✈ KORD - KBWI

Flight Track Log - Related Links

Times and Time Zones

All times are in EDT time to prevent confusion due to time zone crossing. See the UAL252 flight status page for this flight to view local times or setup timezone preferences in your user account.

Time Position Orientation Groundspeed Altitude Reporting Facility
EDT Latitude Longitude Course Direction KTS MPH feet Rate Location/Type
03:57PM 41.9167 -87.8667 135° Southeast 184 212 3,100  Level Chicago TRACON
03:58PM 41.8667 -87.8000 135° Southeast 256 295 5,400 2,820 Climbing Chicago TRACON
03:59PM 41.8167 -87.7167 129° Southeast 289 333 9,100 3,120 Climbing Chicago TRACON
04:00PM 41.8256 -87.5817 85° East 293 337 13,300 2,940 Climbing Chicago Center
04:02PM 41.8597 -87.4486 71° East 316 364 16,300 2,460 Climbing Chicago Center
04:03PM 41.8842 -87.3306 74° East 326 375 18,400 1,980 Climbing Chicago Center
04:04PM 41.9153 -87.2047 72° East 353 406 20,500 1,800 Climbing Chicago Center
04:05PM 41.9472 -87.0711 72° East 375 432 22,200 1,740 Climbing Chicago Center
04:06PM 41.9489 -86.9197 89° East 408 470 24,100 1,800 Climbing Chicago Center
04:07PM 41.9492 -86.7350 90° East 417 480 26,000 1,680 Climbing Chicago Center
04:08PM 41.9528 -86.5789 88° East 429 494 27,600 1,440 Climbing Chicago Center
04:09PM 41.9536 -86.4122 90° East 444 511 29,000 1,500 Climbing Chicago Center
04:10PM 41.9533 -86.2447 90° East 449 517 30,800 1,740 Climbing Chicago Center
04:11PM 41.9289 -86.0769 101° East 459 528 32,600 1,500 Climbing Chicago Center
04:12PM 41.8964 -85.9128 105° East 456 525 34,000 1,140 Climbing Chicago Center
04:13PM 41.8567 -85.7131 105° East 460 529 35,000 480 Climbing Chicago Center
04:14PM 41.8233 -85.5436 105° East 466 536 35,000  Level Chicago Center
04:15PM 41.7892 -85.3686 105° East 476 548 35,000 240 Level Chicago Center
04:16PM 41.7533 -85.1961 106° East 472 543 35,500 960 Climbing Chicago Center
04:17PM 41.7183 -85.0297 106° East 465 535 37,000 720 Climbing Chicago Center
04:18PM 41.6842 -84.8653 105° East 458 527 37,000  Level Chicago Center
04:19PM 41.6628 -84.7022 100° East 448 516 37,000  Level Chicago Center
04:20PM 41.6564 -84.5394 93° East 441 507 37,000  Level Chicago Center
04:21PM 41.6483 -84.3322 93° East 443 510 37,000  Level Cleveland Center
04:22PM 41.6369 -84.1703 95° East 443 510 37,000  Level Cleveland Center
04:23PM 41.6294 -84.0058 93° East 443 510 37,000  Level Cleveland Center
04:24PM 41.6197 -83.8414 94° East 443 510 37,000  Level Cleveland Center
04:25PM 41.6117 -83.6772 94° East 443 510 37,000  Level Cleveland Center
04:26PM 41.5931 -83.5153 99° East 443 510 37,000  Level Cleveland Center
04:27PM 41.5172 -83.3786 127° Southeast 429 494 37,000  Level Cleveland Center
04:28PM 41.4453 -83.2453 126° Southeast 441 507 37,000  Level Cleveland Center
04:29PM 41.3692 -83.1122 127° Southeast 447 514 37,000  Level Cleveland Center
04:30PM 41.2928 -82.9792 127° Southeast 452 520 37,000  Level Cleveland Center
04:31PM 41.2164 -82.8439 127° Southeast 452 520 37,000  Level Cleveland Center
04:32PM 41.1397 -82.7117 128° Southeast 452 520 37,000  Level Cleveland Center
04:33PM 41.0628 -82.5769 127° Southeast 452 520 37,100  Climbing Cleveland Center
04:36PM 40.8856 -82.2706 127° Southeast 454 522 37,000 -60 Descending Indianapolis Center
04:37PM 40.7969 -82.1181 127° Southeast 447 514 36,900  Descending Indianapolis Center
04:38PM 40.7217 -81.9903 128° Southeast 441 507 37,000  Climbing Indianapolis Center
04:39PM 40.6458 -81.8611 128° Southeast 443 510 37,000  Level Indianapolis Center
04:40PM 40.5689 -81.7331 128° Southeast 444 511 37,000  Level Indianapolis Center
04:41PM 40.4914 -81.6031 128° Southeast 449 517 37,100  Climbing Indianapolis Center
04:42PM 40.4181 -81.4717 126° Southeast 444 511 37,100 -60 Level Indianapolis Center
04:43PM 40.3633 -81.2981 112° Southeast 437 503 37,000 -60 Descending Indianapolis Center
04:44PM 40.3175 -81.1494 112° Southeast 437 503 37,000  Level Indianapolis Center
04:45PM 40.2728 -81.0019 112° Southeast 433 498 37,000  Level Indianapolis Center
04:46PM 40.2278 -80.8581 112° Southeast 429 494 37,000  Level Indianapolis Center
04:47PM 40.1825 -80.7136 112° Southeast 427 491 37,000  Level Indianapolis Center
04:48PM 40.1389 -80.5697 112° Southeast 424 488 37,000  Level Indianapolis Center
04:49PM 40.0928 -80.4269 113° Southeast 424 488 37,000  Level Indianapolis Center
04:50PM 40.0375 -80.2522 112° Southeast 418 481 37,000 -180 Level Cleveland Center
04:51PM 39.9933 -80.1117 112° Southeast 418 481 36,700 -600 Descending Cleveland Center
04:52PM 39.9489 -79.9656 112° Southeast 418 481 35,800 -900 Descending Cleveland Center
04:53PM 39.9019 -79.8228 113° Southeast 418 481 35,000 -420 Descending Cleveland Center
04:54PM 39.8550 -79.6797 113° Southeast 418 481 35,000 -660 Level Cleveland Center
04:55PM 39.8081 -79.5344 113° Southeast 424 488 33,700 -2,460 Descending Cleveland Center
04:56PM 39.7586 -79.3842 113° Southeast 435 501 30,100 -4,080 Descending Cleveland Center
04:57PM 39.7128 -79.2386 112° Southeast 440 506 25,000 -2,400 Descending Washington Center
04:58PM 39.6650 -79.0906 113° Southeast 440 506 25,000  Level Washington Center
04:59PM 39.6356 -78.9544 106° East 420 483 25,000 -360 Level Washington Center
05:00PM 39.6000 -78.8100 108° East 389 448 24,400 -1,140 Descending Washington Center
05:01PM 39.5719 -78.6822 106° East 377 434 22,700 -1,800 Descending Washington Center
05:02PM 39.5439 -78.5572 106° East 366 421 20,900 -1,800 Descending Washington Center
05:03PM 39.5156 -78.4322 106° East 366 421 19,200 -1,500 Descending Washington Center
05:04PM 39.4892 -78.3131 106° East 366 421 17,900 -1,440 Descending Washington Center
05:05PM 39.4644 -78.2044 106° East 344 396 16,400 -1,320 Descending Washington Center
05:06PM 39.4608 -78.0861 92° East 329 379 15,400 -1,200 Descending Washington Center
05:07PM 39.4589 -77.9703 91° East 323 372 14,100 -1,200 Descending Washington Center
05:08PM 39.4547 -77.8575 93° East 318 366 13,000 -600 Descending Washington Center
05:09PM 39.4528 -77.7472 91° East 308 354 13,000 -240 Level Washington Center
05:10PM 39.4525 -77.6369 90° East 308 354 12,600 -600 Descending Washington Center
05:11PM 39.4481 -77.5267 93° East 308 354 11,900 -660 Descending Washington Center
05:12PM 39.4456 -77.4189 92° East 308 354 11,300 -480 Descending Washington Center
05:13PM 39.4500 -77.3167 87° East 301 346 11,000 -180 Descending Potomac TRACON
05:14PM 39.4667 -77.2000 79° East 302 348 11,000 -120 Level Potomac TRACON
05:15PM 39.4833 -77.0833 79° East 302 348 10,800 -900 Descending Potomac TRACON
05:16PM 39.4833 -76.9833 90° East 304 350 9,300 -1,980 Descending Potomac TRACON
05:17PM 39.4333 -76.9167 134° Southeast 286 329 7,100 -2,340 Descending Potomac TRACON
05:18PM 39.3667 -76.8833 159° South 278 320 4,700 -2,280 Descending Potomac TRACON
05:19PM 39.3000 -76.8833 180° South 266 306 2,600 -2,100 Descending Potomac TRACON